Regional Weather Roundup
Issued by NWS Memphis, TN

Home | Current Version | Previous Version | Text Only | Print | Product List | Glossary On
Versions: 1 2 3 4 5 6 7 8 9 10 11 12 13 14 15 16 17 18 19 20 21 22 23 24 25 26 27 28 29 30 31 32 33 34 35 36 37 38 39 40 41 42 43 44 45 46 47 48 49 50
000
ASUS44 KMEG 240810
RWRMEG
MEMPHIS CWA HOURLY WEATHER ROUNDUP
NATIONAL WEATHER SERVICE MEMPHIS TN
300 AM CDT SUN MAY 24 2015

...WEST TENNESSEE...

CITY           SKY/WX    TMP DP  RH WIND       PRES   REMARKS
MEMPHIS INTL   MOCLDY    72  58  61 SE7       30.11S
NWS MEMPHIS      N/A     69 N/A N/A MISG        N/A
JACKSON        MOCLDY    68  58  70 SE3       30.15S
LEXINGTON      CLEAR     64  57  77 SE3       30.16S
DYERSBURG      MOCLDY    68  48  49 SE5       30.14R
PARIS          CLEAR     64  55  72 SE6       30.17R


...EASTERN ARKANSAS...

CITY           SKY/WX    TMP DP  RH WIND       PRES   REMARKS
JONESBORO      CLOUDY    68  60  75 SE8       30.08F
WEST MEMPHIS   CLOUDY    70  61  73 SE10      30.09S
BATESVILLE     PTCLDY    70  59  68 NE7       30.05F
NEWPORT        MOCLDY    69  60  73 SE10      30.07F
WALNUT RIDGE   MOCLDY    68  57  68 SE10      30.07F
BLYTHEVILLE    CLOUDY    70  61  73 S8        30.11S
SEARCY         MOCLDY    67  63  87 CALM      30.06F
STUTTGART      MOCLDY    73  63  68 MISG      30.06F
PINE BLUFF     PTCLDY    72  66  81 SE10      30.05F
MONTICELLO     PTCLDY    71  68  90 S3        30.06F


...NORTH MISSISSIPPI...

CITY           SKY/WX    TMP DP  RH WIND       PRES   REMARKS
TUPELO         PTCLDY    69  57  65 S5        30.16R
OXFORD         PTCLDY    68  57  68 SE8       30.16R
OLIVE BRANCH   CLEAR     68  63  83 SE9       30.12F
TUNICA         MOCLDY    72  61  68 SE12      30.10S
CLARKSDALE     MOCLDY    72  63  73 CALM      30.10F
CORINTH        PTCLDY    66  59  77 CALM      30.16R
GREENWOOD      PTCLDY    71  61  70 S7        30.12S
COLUMBUS       CLEAR     65  58  76 SE2       30.16R
STARKVILLE     FAIR      68  59  73 SE3       30.16R
GOLDEN TRIANGL MOCLDY    70  57  64 SE7       30.16R


...SOUTHEAST MISSOURI...

CITY           SKY/WX    TMP DP  RH WIND       PRES   REMARKS
WEST PLAINS    MOCLDY    64  54  69 SE7       30.07F
POPLAR BLUFF   CLOUDY    66  58  75 SE3       30.09S
CAPE GIRARDEAU MOCLDY    65  57  75 SE7       30.11F


...NORTHWEST ALABAMA...

CITY           SKY/WX    TMP DP  RH WIND       PRES   REMARKS
MUSCLE SHOALS  CLEAR     64  56  75 E3        30.21R


...MIDDLE TENNESSEE...

CITY           SKY/WX    TMP DP  RH WIND       PRES   REMARKS
NASHVILLE      PTCLDY    63  54  72 SE5       30.23R
CLARKSVILLE    CLEAR     60  56  86 SE5       30.20R
COLUMBIA       CLEAR     57  57 100 CALM      30.20S


...WESTERN KENTUCKY...

CITY           SKY/WX    TMP DP  RH WIND       PRES   REMARKS
PADUCAH        PTCLDY    62  56  80 SE6       30.14S
FORT CAMPBELL  CLEAR     65  57  76 SE6       30.19R


...CENTRAL ARKANSAS...

CITY           SKY/WX    TMP DP  RH WIND       PRES   REMARKS
LITTLE ROCK    PTCLDY    72  64  76 SE6       30.03F


SKY/WX REPORTED AS FAIR MEANS FEW OR NO CLOUDS BELOW
12 THOUSAND FEET.



USA.gov is the U.S. government's official web portal to all federal, state and local government web resources and services.